CW4427 Weather Reports


Display with metric or nautical units.
time (UTC)temp
F
wind
direction
speed
MPH
gust
MPH
rain 1hr
in
rain 24hr
in
rain mn
in
humidity
%
barometer
mb
20260510220910 77 101 0.0 0.0 0.00 0.00 0.00 70 1015.3
20260510220410 77 101 0.0 0.0 0.00 0.00 0.00 70 1015.3
20260510215910 77 101 0.0 0.0 0.00 0.00 0.00 69 1015.1
20260510215411 78 101 0.0 0.0 0.00 0.00 0.00 68 1015.0
20260510214411 79 101 0.0 0.0 0.00 0.00 0.00 66 1014.9
20260510213910 79 101 0.0 3.0 0.00 0.00 0.00 57 1014.8
20260510212910 80 107 1.0 4.0 0.00 0.00 0.00 60 1014.9
20260510211910 81 86 4.0 5.0 0.00 0.00 0.00 53 1015.1
20260510211410 82 91 3.0 5.0 0.00 0.00 0.00 54 1015.0
20260510210410 80 128 0.0 3.0 0.00 0.00 0.00 58 1015.0
20260510205910 80 82 0.0 4.0 0.00 0.00 0.00 57 1015.1
20260510205410 80 44 0.0 4.0 0.00 0.00 0.00 58 1015.0
20260510204909 80 18 2.0 3.0 0.00 0.00 0.00 61 1015.0
20260510204409 80 103 3.0 4.0 0.00 0.00 0.00 55 1015.1
20260510203909 81 84 2.0 4.0 0.00 0.00 0.00 54 1015.1
20260510203409 81 130 1.0 4.0 0.00 0.00 0.00 53 1015.2
20260510202909 82 225 2.0 5.0 0.00 0.00 0.00 52 1015.2
20260510202409 82 94 1.0 5.0 0.00 0.00 0.00 53 1015.4
20260510201909 82 150 2.0 6.0 0.00 0.00 0.00 53 1015.5
20260510201409 82 89 0.0 6.0 0.00 0.00 0.00 54 1015.5
20260510200909 82 77 3.0 6.0 0.00 0.00 0.00 52 1015.5
20260510200409 83 126 2.0 6.0 0.00 0.00 0.00 55 1015.7
20260510195909 84 175 2.0 5.0 0.00 0.00 0.00 55 1015.7
20260510195409 83 32 0.0 7.0 0.00 0.00 0.00 50 1015.6
20260510194908 83 109 3.0 7.0 0.00 0.00 0.00 52 1015.9
20260510194409 83 107 3.0 6.0 0.00 0.00 0.00 53 1015.9
20260510193909 82 105 0.0 3.0 0.00 0.00 0.00 53 1015.8
20260510193408 82 95 0.0 3.0 0.00 0.00 0.00 52 1015.8
20260510192908 82 51 2.0 3.0 0.00 0.00 0.00 54 1015.7
20260510192409 82 124 1.0 4.0 0.00 0.00 0.00 52 1015.8
20260510190408 83 72 1.0 3.0 0.00 0.00 0.00 50 1016.1
20260510185908 83 19 0.0 2.0 0.00 0.00 0.00 51 1016.1
20260510184908 83 355 0.0 4.0 0.00 0.00 0.00 52 1016.1
20260510184407 81 5 2.0 5.0 0.00 0.00 0.00 54 1016.0
20260510183908 82 25 3.0 5.0 0.00 0.00 0.00 53 1016.0
20260510183408 83 18 1.0 2.0 0.00 0.00 0.00 55 1015.9
20260510182407 82 185 0.0 4.0 0.00 0.00 0.00 51 1015.7
20260510181907 83 229 1.0 2.0 0.00 0.00 0.00 58 1015.9
20260510180907 83 108 2.0 4.0 0.00 0.00 0.00 53 1015.9
20260510180408 82 198 2.0 4.0 0.00 0.00 0.00 55 1015.8
20260510175907 81 102 0.0 6.0 0.00 0.00 0.00 51 1015.8
20260510175407 82 157 0.0 6.0 0.00 0.00 0.00 53 1015.8
20260510174907 82 213 4.0 7.0 0.00 0.00 0.00 53 1015.8
20260510174407 82 138 0.0 7.0 0.00 0.00 0.00 52 1015.8
20260510173907 82 190 2.0 4.0 0.00 0.00 0.00 54 1015.9
20260510173407 82 161 0.0 4.0 0.00 0.00 0.00 59 1016.0
20260510172907 83 325 0.0 3.0 0.00 0.00 0.00 57 1016.2
20260510172407 81 78 0.0 3.0 0.00 0.00 0.00 60 1016.3
20260510171906 81 51 1.0 3.0 0.00 0.00 0.00 56 1016.4
20260510171407 81 317 1.0 3.0 0.00 0.00 0.00 55 1016.4
20260510170906 81 280 2.0 3.0 0.00 0.00 0.00 60 1016.5
20260510170407 81 196 0.0 4.0 0.00 0.00 0.00 59 1016.4
20260510165906 82 139 2.0 5.0 0.00 0.00 0.00 56 1016.4
20260510165406 82 32 2.0 5.0 0.00 0.00 0.00 54 1016.6
20260510164906 83 29 3.0 3.0 0.00 0.00 0.00 59 1016.5
20260510164407 82 276 2.0 3.0 0.00 0.00 0.00 65 1016.5
20260510163907 81 106 1.0 6.0 0.00 0.00 0.00 60 1016.5
20260510163406 81 103 3.0 6.0 0.00 0.00 0.00 64 1016.5
20260510162906 81 107 1.0 3.0 0.00 0.00 0.00 63 1016.5
20260510161906 80 329 1.0 4.0 0.00 0.00 0.00 65 1016.4
20260510161406 81 360 0.0 4.0 0.00 0.00 0.00 65 1016.6
20260510160906 81 5 1.0 4.0 0.00 0.00 0.00 63 1016.6
20260510160406 80 30 1.0 3.0 0.00 0.00 0.00 64 1016.5
20260510154906 81 331 0.0 4.0 0.00 0.00 0.00 66 1016.5
20260510154406 81 287 3.0 3.0 0.00 0.00 0.00 65 1016.5
20260510153906 81 236 2.0 3.0 0.00 0.00 0.00 67 1016.4
20260510153406 79 218 0.0 6.0 0.00 0.00 0.00 66 1016.2
20260510152906 79 15 0.0 6.0 0.00 0.00 0.00 67 1016.3
20260510152405 80 104 0.0 3.0 0.00 0.00 0.00 72 1016.5
20260510151905 78 40 0.0 3.0 0.00 0.00 0.00 72 1016.3
20260510151405 77 121 0.0 4.0 0.00 0.00 0.00 73 1016.2
20260510150906 78 251 2.0 4.0 0.00 0.00 0.00 72 1016.4
20260510150405 77 32 0.0 4.0 0.00 0.00 0.00 73 1016.3
20260510145905 77 346 3.0 5.0 0.00 0.00 0.00 73 1016.3
20260510145405 77 347 0.0 5.0 0.00 0.00 0.00 73 1016.3
20260510144905 77 51 1.0 4.0 0.00 0.00 0.00 73 1016.4
20260510144405 78 290 1.0 4.0 0.00 0.00 0.00 71 1016.4
20260510143905 78 286 1.0 4.0 0.00 0.00 0.00 75 1016.5
20260510143405 77 346 3.0 4.0 0.00 0.00 0.00 74 1016.5
20260510142905 77 285 1.0 3.0 0.00 0.00 0.00 75 1016.5
20260510142405 76 320 1.0 3.0 0.00 0.00 0.00 76 1016.4
20260510141905 76 330 2.0 3.0 0.00 0.00 0.00 76 1016.3
20260510141405 76 274 3.0 5.0 0.00 0.00 0.00 77 1016.3
20260510140905 75 16 0.0 5.0 0.00 0.00 0.00 77 1016.2
20260510140405 74 244 0.0 2.0 0.00 0.00 0.00 78 1016.0
20260510135904 74 347 1.0 2.0 0.00 0.00 0.00 79 1016.1
20260510134905 73 355 0.0 0.0 0.00 0.00 0.00 80 1015.9
20260510133405 73 30 1.0 5.0 0.00 0.00 0.00 82 1016.1
20260510132405 72 284 0.0 1.0 0.00 0.00 0.00 84 1016.0
20260510131405 70 277 0.0 0.0 0.00 0.00 0.00 86 1015.9
20260510130404 69 170 0.0 0.0 0.00 0.00 0.00 87 1015.9
20260510125904 68 170 0.0 0.0 0.00 0.00 0.00 87 1015.8
20260510125405 68 170 0.0 0.0 0.00 0.00 0.00 88 1015.9
20260510124904 67 170 0.0 0.0 0.00 0.00 0.00 88 1015.9
20260510124404 67 170 0.0 0.0 0.00 0.00 0.00 89 1015.9
20260510123904 67 170 0.0 0.0 0.00 0.00 0.00 89 1015.8
20260510123404 66 170 0.0 0.0 0.00 0.00 0.00 89 1015.9
20260510122904 65 170 0.0 0.0 0.00 0.00 0.00 89 1015.8
20260510122404 65 170 0.0 0.0 0.00 0.00 0.00 89 1015.7
20260510121904 65 170 0.0 0.0 0.00 0.00 0.00 90 1015.7
20260510121404 64 170 0.0 0.0 0.00 0.00 0.00 91 1015.6
20260510120904 63 170 0.0 0.0 0.00 0.00 0.00 92 1015.5
20260510120404 63 170 0.0 0.0 0.00 0.00 0.00 92 1015.5
20260510115904 62 170 0.0 0.0 0.00 0.00 0.00 92 1015.5
20260510115404 61 170 0.0 0.0 0.00 0.00 0.00 92 1015.7
20260510114905 61 170 0.0 0.0 0.00 0.00 0.00 93 1015.6
20260510114404 60 170 0.0 0.0 0.00 0.00 0.00 93 1015.6
20260510113904 60 170 0.0 0.0 0.00 0.00 0.00 92 1015.6
20260510113404 59 170 0.0 0.0 0.00 0.00 0.00 92 1015.7
20260510112904 59 170 0.0 0.0 0.00 0.00 0.00 92 1015.5
20260510112404 59 170 0.0 0.0 0.00 0.00 0.00 92 1015.3
20260510111404 59 190 0.0 0.0 0.00 0.00 0.00 92 1015.0
20260510110904 59 190 0.0 0.0 0.00 0.00 0.00 92 1014.9
20260510105904 59 190 0.0 0.0 0.00 0.00 0.00 92 1014.9
20260510104904 59 190 0.0 0.0 0.00 0.00 0.00 92 1014.8
20260510104404 59 190 0.0 0.0 0.00 0.00 0.00 92 1014.6
20260510103904 58 190 0.0 0.0 0.00 0.00 0.00 92 1014.7
20260510103403 59 190 0.0 0.0 0.00 0.00 0.00 92 1014.6
20260510102903 58 190 0.0 0.0 0.00 0.00 0.00 92 1014.5
20260510102403 58 190 0.0 0.0 0.00 0.00 0.00 92 1014.5
20260510101903 58 190 0.0 0.0 0.00 0.00 0.00 92 1014.4
20260510100903 58 190 0.0 0.0 0.00 0.00 0.00 91 1014.3
20260510100403 58 190 0.0 0.0 0.00 0.00 0.00 91 1014.3
20260510095403 59 190 0.0 0.0 0.00 0.00 0.00 90 1014.2
20260510094903 59 190 0.0 0.0 0.00 0.00 0.00 90 1014.2
20260510093903 59 190 0.0 0.0 0.00 0.00 0.00 90 1014.1
20260510093403 59 190 0.0 0.0 0.00 0.00 0.00 90 1014.0
20260510092903 59 190 0.0 0.0 0.00 0.00 0.00 89 1013.9
20260510091903 59 190 0.0 0.0 0.00 0.00 0.00 89 1013.8
20260510090903 59 190 0.0 0.0 0.00 0.00 0.00 88 1013.5
20260510085403 59 190 0.0 0.0 0.00 0.00 0.00 88 1013.3
20260510084903 59 190 0.0 0.0 0.00 0.00 0.00 87 1013.2
20260510084402 59 190 0.0 0.0 0.00 0.00 0.00 87 1013.3
20260510083903 60 190 0.0 0.0 0.00 0.00 0.00 87 1013.3
20260510082902 59 190 0.0 0.0 0.00 0.00 0.00 87 1013.4
20260510081903 59 190 0.0 0.0 0.00 0.00 0.00 86 1013.4
20260510081402 59 190 0.0 0.0 0.00 0.00 0.00 86 1013.2
20260510080902 59 190 0.0 0.0 0.00 0.00 0.00 85 1013.3
20260510080402 59 190 0.0 0.0 0.00 0.00 0.00 84 1013.2
20260510075902 59 190 0.0 0.0 0.00 0.00 0.00 85 1013.2
20260510075402 60 190 0.0 0.0 0.00 0.00 0.00 84 1013.2
20260510074902 60 190 0.0 0.0 0.00 0.00 0.00 84 1013.2
20260510073902 60 190 0.0 0.0 0.00 0.00 0.00 84 1013.2
20260510073402 60 190 0.0 0.0 0.00 0.00 0.00 83 1013.2
20260510072902 60 190 0.0 0.0 0.00 0.00 0.00 83 1013.2
20260510072402 60 190 0.0 0.0 0.00 0.00 0.00 83 1013.3
20260510071902 60 190 0.0 0.0 0.00 0.00 0.00 83 1013.2
20260510071402 59 190 0.0 0.0 0.00 0.00 0.00 83 1013.2
20260510070902 59 190 0.0 0.0 0.00 0.00 0.00 82 1013.1
20260510065901 59 190 0.0 0.0 0.00 0.00 0.00 82 1013.2
20260510065402 59 190 0.0 0.0 0.00 0.00 0.00 82 1013.3
20260510064402 59 190 0.0 0.0 0.00 0.00 0.00 83 1013.4
20260510063402 59 190 0.0 0.0 0.00 0.00 0.00 82 1013.2
20260510062902 59 190 0.0 0.0 0.00 0.00 0.00 83 1013.1
20260510062402 59 190 0.0 0.0 0.00 0.00 0.00 82 1012.9
20260510061901 59 190 0.0 0.0 0.00 0.00 0.00 82 1012.8
20260510061402 59 190 0.0 0.0 0.00 0.00 0.00 82 1012.9
20260510060901 59 190 0.0 0.0 0.00 0.00 0.00 82 1012.8
20260510060402 60 190 0.0 0.0 0.00 0.00 0.00 82 1012.7
20260510055402 60 190 0.0 0.0 0.00 0.00 0.00 81 1012.7
20260510054902 60 190 0.0 0.0 0.00 0.00 0.00 80 1012.7
20260510054401 60 190 0.0 0.0 0.00 0.00 0.00 81 1012.8
20260510053901 60 190 0.0 0.0 0.00 0.00 0.00 81 1012.7
20260510053401 60 190 0.0 0.0 0.00 0.00 0.00 80 1012.7
20260510052902 60 190 0.0 0.0 0.00 0.00 0.00 79 1012.7
20260510052401 60 190 0.0 0.0 0.00 0.00 0.00 81 1012.7
20260510051901 60 190 0.0 0.0 0.00 0.00 0.00 81 1012.7
20260510051402 60 190 0.0 0.0 0.00 0.00 0.00 79 1012.7
20260510050902 60 190 0.0 0.0 0.00 0.00 0.00 79 1012.7
20260510050401 61 190 0.0 0.0 0.00 0.00 0.00 78 1012.7
20260510045901 61 190 0.0 0.0 0.00 0.00 0.00 78 1012.6
20260510045401 61 190 0.0 0.0 0.00 0.00 0.00 77 1012.6
20260510044901 61 190 0.0 0.0 0.00 0.00 0.00 77 1012.6
20260510044402 61 190 0.0 0.0 0.00 0.00 0.00 77 1012.6
20260510043901 62 190 0.0 0.0 0.00 0.00 0.00 77 1012.6
20260510041902 62 190 0.0 0.0 0.00 0.00 0.00 77 1012.7
20260510041401 62 190 0.0 0.0 0.00 0.00 0.00 77 1012.7
20260510040902 62 190 0.0 0.0 0.00 0.00 0.00 77 1012.7
20260510035901 62 190 0.0 0.0 0.00 0.00 0.00 76 1012.8
20260510035402 62 190 0.0 0.0 0.00 0.00 0.00 76 1012.7
20260510034901 62 190 0.0 0.0 0.00 0.00 0.00 76 1012.7
20260510034402 62 190 0.0 0.0 0.00 0.00 0.00 76 1012.8
20260510033901 62 190 0.0 0.0 0.00 0.00 0.00 76 1012.8
20260510033401 62 190 0.0 0.0 0.00 0.00 0.00 75 1012.7
20260510032901 63 190 0.0 1.0 0.00 0.00 0.00 75 1012.7
20260510032401 63 190 0.0 1.0 0.00 0.00 0.00 75 1012.9
20260510031901 63 190 0.0 3.0 0.00 0.00 0.00 74 1012.8
20260510031402 63 190 0.0 3.0 0.00 0.00 0.00 74 1012.8
20260510030401 63 79 0.0 0.0 0.00 0.00 0.00 74 1012.8
20260510025901 64 79 0.0 0.0 0.00 0.00 0.00 73 1012.7
20260510024901 64 79 0.0 0.0 0.00 0.00 0.00 72 1012.8
20260510024401 64 79 0.0 0.0 0.00 0.00 0.00 71 1012.7
20260510023401 65 79 0.0 0.0 0.00 0.00 0.00 70 1012.7
20260510022901 65 79 0.0 0.0 0.00 0.00 0.00 70 1012.6
20260510022401 65 79 0.0 0.0 0.00 0.00 0.00 71 1012.5
20260510021401 66 79 0.0 0.0 0.00 0.00 0.00 71 1012.4
20260510020900 66 79 0.0 0.0 0.00 0.00 0.00 70 1012.2
20260510020400 66 79 0.0 0.0 0.00 0.00 0.00 69 1012.1
20260510015900 66 79 0.0 0.0 0.00 0.00 0.00 67 1012.1
20260510014901 67 79 0.0 0.0 0.00 0.00 0.00 68 1012.0
20260510014400 67 79 0.0 0.0 0.00 0.00 0.00 66 1011.8
20260510013401 67 79 0.0 0.0 0.00 0.00 0.00 64 1011.5
20260510012900 68 79 0.0 0.0 0.00 0.00 0.00 65 1011.6
20260510012400 68 79 0.0 0.0 0.00 0.00 0.00 68 1011.4
20260510011900 68 79 0.0 0.0 0.00 0.00 0.00 67 1011.4
20260510010900 69 79 0.0 0.0 0.00 0.00 0.00 62 1011.3
20260510010400 69 79 0.0 0.0 0.00 0.00 0.00 62 1011.2
20260510005900 70 79 0.0 0.0 0.00 0.00 0.00 60 1011.2
20260510004900 71 79 0.0 0.0 0.00 0.00 0.00 58 1011.1
20260510004400 71 79 0.0 0.0 0.00 0.00 0.00 57 1011.0
20260510003900 72 79 0.0 0.0 0.00 0.00 0.00 56 1011.0
20260510002900 72 79 0.0 0.0 0.00 0.00 0.00 57 1010.8
20260510002400 73 79 0.0 0.0 0.00 0.00 0.00 58 1010.7
20260510001900 73 79 0.0 0.0 0.00 0.00 0.00 56 1010.7
20260510001400 74 79 0.0 0.0 0.00 0.00 0.00 57 1010.5
20260510000859 74 79 0.0 0.0 0.00 0.00 0.00 53 1010.5
20260510000359 75 79 0.0 0.0 0.00 0.00 0.00 54 1010.4
20260509235900 75 79 0.0 0.0 0.00 0.00 0.00 51 1010.3
20260509235359 76 79 0.0 0.0 0.00 0.00 0.00 52 1010.3
20260509234859 77 79 0.0 0.0 0.00 0.00 0.00 51 1010.3
20260509234359 77 79 0.0 0.0 0.00 0.00 0.00 49 1010.3
20260509233900 77 79 0.0 0.0 0.00 0.00 0.00 48 1010.2
20260509233400 77 79 0.0 0.0 0.00 0.00 0.00 49 1010.2
20260509231859 79 79 0.0 2.0 0.00 0.00 0.00 38 1010.1
20260509231359 80 79 0.0 3.0 0.00 0.00 0.00 41 1010.1
20260509230859 80 76 1.0 5.0 0.00 0.00 0.00 41 1010.1
20260509230359 80 86 2.0 5.0 0.00 0.00 0.00 38 1010.0
20260509225859 81 92 0.0 3.0 0.00 0.00 0.00 37 1010.0
20260509225359 81 75 0.0 2.0 0.00 0.00 0.00 41 1009.9
20260509224859 81 75 0.0 4.0 0.00 0.00 0.00 34 1009.8
20260509224359 81 90 2.0 4.0 0.00 0.00 0.00 40 1009.9
20260509223859 82 109 3.0 7.0 0.00 0.00 0.00 37 1009.9
20260509223359 81 55 1.0 7.0 0.00 0.00 0.00 37 1009.9
20260509222359 82 107 1.0 6.0 0.00 0.00 0.00 39 1009.9
20260509221859 83 117 2.0 6.0 0.00 0.00 0.00 37 1010.0
20260509221359 82 34 2.0 3.0 0.00 0.00 0.00 36 1010.0